,,Stat6,,Stat2,,Stat8,,Stat9,,Stat10,,Wind1,,Wind1,
time,status,PA1M_AVG,status,PR1M_SUM,status,RH1M_AVG,status,SR1M_AVG,status,TA1M_AVG,status,W1dAve1m,status,W1sAve1m,
2008-04-25, 00:00:00,VALID,918.391,VALID,0,VALID,100,VALID,0,VALID,19.889,VALID,26,VALID,1.03609,
2008-04-25, 00:01:00,VALID,918.327,VALID,0,VALID,100,VALID,-0.0169808,VALID,19.889,VALID,22,VALID,0.7883,
2008-04-25, 00:02:00,VALID,918.308,VALID,0,VALID,100,VALID,0,VALID,19.8665,VALID,18,VALID,1.45188,
2008-04-25, 00:03:00,VALID,918.266,VALID,0,VALID,100,VALID,0,VALID,19.863,VALID,26,VALID,1.41711,
2008-04-25, 00:04:00,VALID,918.25,VALID,0,VALID,100,VALID,-0.0169808,VALID,19.8601,VALID,17,VALID,0.83576,
2008-04-25, 00:05:00,VALID,918.235,VALID,0,VALID,100,VALID,-0.0169808,VALID,19.8503,VALID,21,VALID,1.41369,
2008-04-25, 00:06:00,VALID,918.218,VALID,0,VALID,100,VALID,0,VALID,19.8468,VALID,21,VALID,1.37305,
2008-04-25, 00:07:00,VALID,918.175,VALID,0,VALID,100,VALID,0.0509425,VALID,19.8393,VALID,34,VALID,1.54306,
2008-04-25, 00:08:00,VALID,918.172,VALID,0,VALID,100,VALID,0.101885,VALID,19.8456,VALID,32,VALID,1.17454,
2008-04-25, 00:09:00,VALID,918.157,VALID,0,VALID,100,VALID,0.101885,VALID,19.8418,VALID,44,VALID,0.850472,
2008-04-25, 00:10:00,VALID,918.125,VALID,0,VALID,100,VALID,0.101885,VALID,19.8486,VALID,342,VALID,1.15681,
2008-04-25, 00:11:00,VALID,918.146,VALID,0,VALID,100,VALID,0.0849042,VALID,19.8518,VALID,42,VALID,0.109557,
2008-04-25, 00:12:00,VALID,918.157,VALID,0,VALID,100,VALID,0.0849042,VALID,19.8451,VALID,178,VALID,0.144804,
2008-04-25, 00:13:00,VALID,918.139,VALID,0,VALID,100,VALID,0.0849042,VALID,19.855,VALID,90,VALID,0,
2008-04-25, 00:14:00,VALID,918.134,VALID,0,VALID,100,VALID,0.0849042,VALID,19.858,VALID,30,VALID,0,
2008-04-25, 00:15:00,VALID,918.126,VALID,0,VALID,100,VALID,0.0679233,VALID,19.8553,VALID,62,VALID,0.28196,
2008-04-25, 00:16:00,VALID,918.104,VALID,0,VALID,100,VALID,0.101885,VALID,19.8713,VALID,43,VALID,1.04922,
2008-04-25, 00:17:00,VALID,918.079,VALID,0,VALID,100,VALID,0.0849042,VALID,19.878,VALID,71,VALID,0.374809,
2008-04-25, 00:18:00,VALID,918.033,VALID,0,VALID,100,VALID,0.0679233,VALID,19.881,VALID,329,VALID,1.72475,
2008-04-25, 00:19:00,VALID,918.027,VALID,0,VALID,100,VALID,0.101885,VALID,19.9135,VALID,29,VALID,1.74628,
2008-04-25, 00:20:00,VALID,918.012,VALID,0,VALID,100,VALID,0.0679233,VALID,19.9199,VALID,32,VALID,1.69327,
2008-04-25, 00:21:00,VALID,917.997,VALID,0,VALID,100,VALID,0.101885,VALID,19.9264,VALID,25,VALID,1.68733,
2008-04-25, 00:22:00,VALID,917.972,VALID,0,VALID,100,VALID,0.0339617,VALID,19.9339,VALID,29,VALID,1.81559,
2008-04-25, 00:23:00,VALID,917.986,VALID,0,VALID,100,VALID,-0.0169808,VALID,19.9247,VALID,16,VALID,1.82286,
2008-04-25, 00:24:00,VALID,917.988,VALID,0,VALID,100,VALID,-0.0339617,VALID,19.9377,VALID,27,VALID,0.791969,
2008-04-25, 00:25:00,VALID,917.939,VALID,0,VALID,100,VALID,0,VALID,19.9307,VALID,33,VALID,1.81898,
2008-04-25, 00:26:00,VALID,917.919,VALID,0,VALID,100,VALID,-0.0169808,VALID,19.9407,VALID,33,VALID,0.473704,
2008-04-25, 00:27:00,VALID,917.877,VALID,0,VALID,100,VALID,-0.0169808,VALID,19.9344,VALID,56,VALID,0,
2008-04-25, 00:28:00,VALID,917.855,VALID,0,VALID,100,VALID,0,VALID,19.9314,VALID,40,VALID,0.343071,
2008-04-25, 00:29:00,VALID,917.79,VALID,0,VALID,100,VALID,-0.0339617,VALID,19.9247,VALID,36,VALID,1.99647,
2008-04-25, 00:30:00,VALID,917.79,VALID,0,VALID,100,VALID,-0.0169808,VALID,19.9212,VALID,27,VALID,0.669389,
2008-04-25, 00:31:00,VALID,917.786,VALID,0,VALID,100,VALID,0,VALID,19.9115,VALID,10,VALID,0.794531,
2008-04-25, 00:32:00,VALID,917.789,VALID,0,VALID,100,VALID,-0.0169808,VALID,19.9115,VALID,19,VALID,1.03191,
2008-04-25, 00:33:00,VALID,917.752,VALID,0,VALID,100,VALID,0,VALID,19.8952,VALID,26,VALID,1.09749,
2008-04-25, 00:34:00,VALID,917.74,VALID,0,VALID,100,VALID,-0.0339617,VALID,19.8987,VALID,24,VALID,1.17541,
2008-04-25, 00:35:00,VALID,917.722,VALID,0,VALID,100,VALID,0,VALID,19.889,VALID,24,VALID,1.46187,
2008-04-25, 00:36:00,VALID,917.692,VALID,0,VALID,100,VALID,0,VALID,19.8928,VALID,30,VALID,2.3923,
2008-04-25, 00:37:00,VALID,917.695,VALID,0,VALID,100,VALID,-0.0509425,VALID,19.8922,VALID,35,VALID,2.32122,
2008-04-25, 00:38:00,VALID,917.703,VALID,0,VALID,100,VALID,-0.0339617,VALID,19.8957,VALID,26,VALID,1.72732,
2008-04-25, 00:39:00,VALID,917.687,VALID,0,VALID,100,VALID,-0.0169808,VALID,19.8858,VALID,26,VALID,2.05778,
2008-04-25, 00:40:00,VALID,917.7,VALID,0,VALID,100,VALID,-0.0339617,VALID,19.8858,VALID,25,VALID,1.28478,
2008-04-25, 00:41:00,VALID,917.706,VALID,0,VALID,100,VALID,0,VALID,19.8795,VALID,32,VALID,1.29135,
2008-04-25, 00:42:00,VALID,917.661,VALID,0,VALID,100,VALID,0,VALID,19.8825,VALID,24,VALID,1.27663,
2008-04-25, 00:43:00,VALID,917.633,VALID,0,VALID,100,VALID,-0.0169808,VALID,19.8758,VALID,22,VALID,1.57209,
2008-04-25, 00:44:00,VALID,917.607,VALID,0,VALID,100,VALID,0,VALID,19.876,VALID,29,VALID,1.9987,
2008-04-25, 00:45:00,VALID,917.6,VALID,0,VALID,100,VALID,0,VALID,19.8793,VALID,25,VALID,1.3125,
2008-04-25, 00:46:00,VALID,917.576,VALID,0,VALID,100,VALID,0.0169808,VALID,19.8758,VALID,25,VALID,0.294643,
2008-04-25, 00:47:00,VALID,917.553,VALID,0,VALID,100,VALID,-0.0169808,VALID,19.876,VALID,20,VALID,1.28627,
2008-04-25, 00:48:00,VALID,917.524,VALID,0,VALID,100,VALID,0.0169808,VALID,19.8628,VALID,29,VALID,1.67012,
2008-04-25, 00:49:00,VALID,917.517,VALID,0,VALID,100,VALID,0,VALID,19.8728,VALID,14,VALID,1.06603,
2008-04-25, 00:50:00,VALID,917.489,VALID,0,VALID,100,VALID,0,VALID,19.8695,VALID,25,VALID,0.903472,
2008-04-25, 00:51:00,VALID,917.433,VALID,0,VALID,100,VALID,0.0169808,VALID,19.8598,VALID,29,VALID,1.49619,
2008-04-25, 00:52:00,VALID,917.409,VALID,0,VALID,100,VALID,-0.0339617,VALID,19.8496,VALID,29,VALID,2.16797,
2008-04-25, 00:53:00,VALID,917.408,VALID,0,VALID,100,VALID,-0.0509425,VALID,19.8436,VALID,26,VALID,1.94772,
2008-04-25, 00:54:00,VALID,917.394,VALID,0,VALID,100,VALID,-0.0679233,VALID,19.8406,VALID,30,VALID,1.66635,
2008-04-25, 00:55:00,VALID,917.35,VALID,0,VALID,100,VALID,-0.0169808,VALID,19.8371,VALID,27,VALID,2.1724,
2008-04-25, 00:56:00,VALID,917.35,VALID,0,VALID,100,VALID,-0.0339617,VALID,19.8371,VALID,32,VALID,1.96203,
2008-04-25, 00:57:00,VALID,917.32,VALID,0,VALID,100,VALID,-0.0169808,VALID,19.8341,VALID,31,VALID,1.47008,
2008-04-25, 00:58:00,VALID,917.323,VALID,0,VALID,100,VALID,-0.0169808,VALID,19.8176,VALID,22,VALID,2.05096,
2008-04-25, 00:59:00,VALID,917.338,VALID,0,VALID,100,VALID,-0.0169808,VALID,19.8114,VALID,24,VALID,1.36293,
2008-04-25, 01:00:00,VALID,917.336,VALID,0,VALID,100,VALID,0,VALID,19.8209,VALID,18,VALID,1.18859,
2008-04-25, 01:01:00,VALID,917.32,VALID,0,VALID,100,VALID,0,VALID,19.8271,VALID,25,VALID,1.42604,
2008-04-25, 01:02:00,VALID,917.309,VALID,0,VALID,100,VALID,0,VALID,19.8239,VALID,28,VALID,1.79632,
2008-04-25, 01:03:00,VALID,917.299,VALID,0,VALID,100,VALID,-0.0169808,VALID,19.8176,VALID,23,VALID,1.85738,
2008-04-25, 01:04:00,VALID,917.308,VALID,0,VALID,100,VALID,-0.0679233,VALID,19.8241,VALID,19,VALID,1.65199,
2008-04-25, 01:05:00,VALID,917.278,VALID,0,VALID,100,VALID,-0.0339617,VALID,19.8211,VALID,32,VALID,1.57703,
2008-04-25, 01:06:00,VALID,917.252,VALID,0,VALID,100,VALID,-0.0509425,VALID,19.8276,VALID,35,VALID,1.97329,
2008-04-25, 01:07:00,VALID,917.219,VALID,0,VALID,100,VALID,0.0509425,VALID,19.8328,VALID,32,VALID,2.32195,
2008-04-25, 01:08:00,VALID,917.217,VALID,0,VALID,100,VALID,0.0339617,VALID,19.8263,VALID,32,VALID,1.56523,
2008-04-25, 01:09:00,VALID,917.214,VALID,0,VALID,100,VALID,0.0849042,VALID,19.8194,VALID,25,VALID,1.62165,
2008-04-25, 01:10:00,VALID,917.2,VALID,0,VALID,100,VALID,0.0849042,VALID,19.8263,VALID,16,VALID,1.84785,
2008-04-25, 01:11:00,VALID,917.242,VALID,0,VALID,100,VALID,0.0169808,VALID,19.8096,VALID,26,VALID,1.23457,
2008-04-25, 01:12:00,VALID,917.235,VALID,0,VALID,100,VALID,0.0679233,VALID,19.8296,VALID,29,VALID,1.90251,
2008-04-25, 01:13:00,VALID,917.227,VALID,0,VALID,100,VALID,0.0849042,VALID,19.8194,VALID,32,VALID,2.00799,
2008-04-25, 01:14:00,VALID,917.241,VALID,0,VALID,100,VALID,0.0509425,VALID,19.8296,VALID,28,VALID,2.11626,
2008-04-25, 01:15:00,VALID,917.218,VALID,0,VALID,100,VALID,0.0679233,VALID,19.8261,VALID,23,VALID,1.08158,
2008-04-25, 01:16:00,VALID,917.213,VALID,0,VALID,100,VALID,0.0679233,VALID,19.8321,VALID,23,VALID,1.26023,
2008-04-25, 01:17:00,VALID,917.185,VALID,0,VALID,100,VALID,0.0509425,VALID,19.8293,VALID,24,VALID,1.62954,
2008-04-25, 01:18:00,VALID,917.178,VALID,0,VALID,100,VALID,0.0679233,VALID,19.8323,VALID,27,VALID,1.90861,
2008-04-25, 01:19:00,VALID,917.165,VALID,0,VALID,100,VALID,0.0679233,VALID,19.8293,VALID,27,VALID,2.27113,
2008-04-25, 01:20:00,VALID,917.186,VALID,0,VALID,100,VALID,0.0849042,VALID,19.8326,VALID,30,VALID,2.08878,
2008-04-25, 01:21:00,VALID,917.185,VALID,0,VALID,100,VALID,0.0509425,VALID,19.8396,VALID,86,VALID,0.861111,
2008-04-25, 01:22:00,VALID,917.151,VALID,0,VALID,100,VALID,-0.0339617,VALID,19.8338,VALID,3,VALID,0.55522,
2008-04-25, 01:23:00,VALID,917.153,VALID,0,VALID,100,VALID,-0.0339617,VALID,19.8371,VALID,20,VALID,1.48493,
2008-04-25, 01:24:00,VALID,917.142,VALID,0,VALID,100,VALID,-0.0339617,VALID,19.8141,VALID,46,VALID,1.50781,
2008-04-25, 01:25:00,VALID,917.152,VALID,0,VALID,100,VALID,0,VALID,19.8303,VALID,33,VALID,1.75563,
2008-04-25, 01:26:00,VALID,917.167,VALID,0,VALID,100,VALID,-0.0339617,VALID,19.8236,VALID,34,VALID,1.80621,
2008-04-25, 01:27:00,VALID,917.163,VALID,0,VALID,100,VALID,-0.0509425,VALID,19.8273,VALID,35,VALID,2.10014,
2008-04-25, 01:28:00,VALID,917.147,VALID,0,VALID,100,VALID,-0.0339617,VALID,19.8338,VALID,41,VALID,2.31321,
2008-04-25, 01:29:00,VALID,917.156,VALID,0,VALID,100,VALID,-0.0339617,VALID,19.8271,VALID,23,VALID,1.47856,
2008-04-25, 01:30:00,VALID,917.134,VALID,0,VALID,100,VALID,-0.0339617,VALID,19.8244,VALID,19,VALID,1.54353,
2008-04-25, 01:31:00,VALID,917.134,VALID,0,VALID,100,VALID,-0.0339617,VALID,19.8209,VALID,27,VALID,1.38938,
2008-04-25, 01:32:00,VALID,917.134,VALID,0,VALID,100,VALID,-0.0339617,VALID,19.8306,VALID,21,VALID,1.36428,
2008-04-25, 01:33:00,VALID,917.089,VALID,0.2,VALID,100,VALID,-0.0169808,VALID,19.8306,VALID,29,VALID,1.10882,
2008-04-25, 01:34:00,VALID,917.094,VALID,0,VALID,100,VALID,-0.0339617,VALID,19.8244,VALID,32,VALID,2.0984,
2008-04-25, 01:35:00,VALID,917.105,VALID,0,VALID,100,VALID,-0.0169808,VALID,19.8271,VALID,25,VALID,1.37198,
2008-04-25, 01:36:00,VALID,917.092,VALID,0,VALID,100,VALID,-0.0509425,VALID,19.8241,VALID,26,VALID,1.53543,
2008-04-25, 01:37:00,VALID,917.068,VALID,0,VALID,100,VALID,0.0169808,VALID,19.8234,VALID,38,VALID,1.92891,
2008-04-25, 01:38:00,VALID,917.065,VALID,0,VALID,100,VALID,0.0679233,VALID,19.8261,VALID,23,VALID,1.72694,
2008-04-25, 01:39:00,VALID,917.07,VALID,0,VALID,100,VALID,0.0169808,VALID,19.8268,VALID,31,VALID,1.22674,
2008-04-25, 01:40:00,VALID,917.089,VALID,0,VALID,100,VALID,0.0509425,VALID,19.8261,VALID,21,VALID,1.32195,
2008-04-25, 01:41:00,VALID,917.072,VALID,0,VALID,100,VALID,0.0679233,VALID,19.8231,VALID,38,VALID,1.58176,
2008-04-25, 01:42:00,VALID,917.069,VALID,0,VALID,100,VALID,0.0339617,VALID,19.8301,VALID,23,VALID,1.11076,
2008-04-25, 01:43:00,VALID,917.074,VALID,0,VALID,100,VALID,0.0509425,VALID,19.8096,VALID,30,VALID,1.6673,
2008-04-25, 01:44:00,VALID,917.063,VALID,0,VALID,100,VALID,0.0509425,VALID,19.8206,VALID,20,VALID,1.22177,
2008-04-25, 01:45:00,VALID,917.049,VALID,0,VALID,100,VALID,0.0509425,VALID,19.8099,VALID,29,VALID,1.41661,
2008-04-25, 01:46:00,VALID,917.044,VALID,0,VALID,100,VALID,0.0339617,VALID,19.8071,VALID,32,VALID,1.55357,
2008-04-25, 01:47:00,VALID,917.038,VALID,0,VALID,100,VALID,0.0509425,VALID,19.8001,VALID,30,VALID,1.44028,
2008-04-25, 01:48:00,VALID,917.032,VALID,0,VALID,100,VALID,0.0339617,VALID,19.8034,VALID,30,VALID,1.60342,
2008-04-25, 01:49:00,VALID,917.049,VALID,0,VALID,100,VALID,0.0509425,VALID,19.7969,VALID,37,VALID,1.67696,
2008-04-25, 01:50:00,VALID,917.05,VALID,0,VALID,100,VALID,0.0679233,VALID,19.7996,VALID,37,VALID,1.94284,
2008-04-25, 01:51:00,VALID,917.03,VALID,0,VALID,100,VALID,0.0339617,VALID,19.7934,VALID,31,VALID,1.78977,
2008-04-25, 01:52:00,VALID,917.026,VALID,0,VALID,100,VALID,0.0169808,VALID,19.8046,VALID,29,VALID,1.38652,
2008-04-25, 01:53:00,VALID,917.008,VALID,0,VALID,100,VALID,0,VALID,19.7714,VALID,32,VALID,1.17987,
2008-04-25, 01:54:00,VALID,916.988,VALID,0,VALID,100,VALID,0,VALID,19.7682,VALID,35,VALID,1.65253,
2008-04-25, 01:55:00,VALID,916.98,VALID,0,VALID,100,VALID,0,VALID,19.7652,VALID,33,VALID,1.68262,
2008-04-25, 01:56:00,VALID,916.965,VALID,0,VALID,100,VALID,0,VALID,19.7714,VALID,31,VALID,1.54948,
2008-04-25, 01:57:00,VALID,916.963,VALID,0,VALID,100,VALID,0,VALID,19.7617,VALID,33,VALID,1.08794,
2008-04-25, 01:58:00,VALID,916.955,VALID,0,VALID,100,VALID,0,VALID,19.7487,VALID,30,VALID,1.725,
2008-04-25, 01:59:00,VALID,916.953,VALID,0,VALID,100,VALID,0,VALID,19.7487,VALID,31,VALID,1.77035,
2008-04-25, 02:00:00,VALID,916.952,VALID,0,VALID,100,VALID,0,VALID,19.7525,VALID,34,VALID,1.44727,
2008-04-25, 02:01:00,VALID,916.945,VALID,0,VALID,100,VALID,-0.0169808,VALID,19.7355,VALID,33,VALID,0.888765,
2008-04-25, 02:02:00,VALID,916.943,VALID,0,VALID,100,VALID,-0.0339617,VALID,19.7362,VALID,33,VALID,1.60417,
2008-04-25, 02:03:00,VALID,916.918,VALID,0,VALID,100,VALID,0,VALID,19.7427,VALID,35,VALID,1.46699,
2008-04-25, 02:04:00,VALID,916.905,VALID,0,VALID,100,VALID,-0.0509425,VALID,19.7395,VALID,30,VALID,0.840661,
2008-04-25, 02:05:00,VALID,916.913,VALID,0,VALID,100,VALID,0,VALID,19.729,VALID,52,VALID,0.323047,
2008-04-25, 02:06:00,VALID,916.909,VALID,0,VALID,100,VALID,0,VALID,19.7163,VALID,49,VALID,0.452592,
2008-04-25, 02:07:00,VALID,916.894,VALID,0,VALID,100,VALID,-0.0169808,VALID,19.7095,VALID,32,VALID,0.347656,
2008-04-25, 02:08:00,VALID,916.898,VALID,0,VALID,100,VALID,0,VALID,19.71,VALID,30,VALID,0.0280449,
2008-04-25, 02:09:00,VALID,916.906,VALID,0,VALID,100,VALID,0.0169808,VALID,19.7065,VALID,36,VALID,0.972202,
2008-04-25, 02:10:00,VALID,916.912,VALID,0,VALID,100,VALID,0,VALID,19.7008,VALID,23,VALID,0.67731,
2008-04-25, 02:11:00,VALID,916.93,VALID,0,VALID,100,VALID,-0.0169808,VALID,19.7035,VALID,45,VALID,0.160866,
2008-04-25, 02:12:00,VALID,916.951,VALID,0,VALID,100,VALID,-0.0169808,VALID,19.7006,VALID,24,VALID,0,
2008-04-25, 02:13:00,VALID,916.972,VALID,0,VALID,100,VALID,-0.0169808,VALID,19.6938,VALID,24,VALID,0.0440972,
2008-04-25, 02:14:00,VALID,916.94,VALID,0,VALID,100,VALID,0,VALID,19.6938,VALID,28,VALID,0.400254,
2008-04-25, 02:15:00,VALID,916.911,VALID,0,VALID,100,VALID,-0.0169808,VALID,19.7008,VALID,33,VALID,1.43395,
2008-04-25, 02:16:00,VALID,916.909,VALID,0,VALID,100,VALID,0,VALID,19.7073,VALID,27,VALID,0.330163,
2008-04-25, 02:17:00,VALID,916.886,VALID,0,VALID,100,VALID,-0.0509425,VALID,19.7073,VALID,25,VALID,1.0832,
2008-04-25, 02:18:00,VALID,916.854,VALID,0,VALID,100,VALID,0.0169808,VALID,19.7038,VALID,18,VALID,0.355378,
2008-04-25, 02:19:00,VALID,916.842,VALID,0,VALID,100,VALID,0,VALID,19.7068,VALID,27,VALID,1.22786,
2008-04-25, 02:20:00,VALID,916.854,VALID,0,VALID,100,VALID,0,VALID,19.7098,VALID,16,VALID,0.718369,
2008-04-25, 02:21:00,VALID,916.843,VALID,0,VALID,100,VALID,0,VALID,19.7295,VALID,12,VALID,0.315104,
2008-04-25, 02:22:00,VALID,916.821,VALID,0,VALID,100,VALID,0,VALID,19.7293,VALID,33,VALID,0.965216,
2008-04-25, 02:23:00,VALID,916.816,VALID,0,VALID,100,VALID,0.0339617,VALID,19.7158,VALID,16,VALID,0.367006,
2008-04-25, 02:24:00,VALID,916.818,VALID,0,VALID,100,VALID,0.0169808,VALID,19.7295,VALID,22,VALID,0.90189,
2008-04-25, 02:25:00,VALID,916.788,VALID,0,VALID,100,VALID,-0.0169808,VALID,19.7193,VALID,36,VALID,1.31595,
2008-04-25, 02:26:00,VALID,916.776,VALID,0,VALID,100,VALID,0,VALID,19.7395,VALID,26,VALID,1.83976,
2008-04-25, 02:27:00,VALID,916.774,VALID,0,VALID,100,VALID,0,VALID,19.736,VALID,36,VALID,1.65861,
2008-04-25, 02:28:00,VALID,916.764,VALID,0,VALID,100,VALID,0.0169808,VALID,19.739,VALID,36,VALID,1.47123,
2008-04-25, 02:29:00,VALID,916.737,VALID,0,VALID,100,VALID,0,VALID,19.7555,VALID,38,VALID,1.63014,
2008-04-25, 02:30:00,VALID,916.713,VALID,0,VALID,100,VALID,-0.0169808,VALID,19.7625,VALID,33,VALID,1.6713,
2008-04-25, 02:31:00,VALID,916.712,VALID,0,VALID,100,VALID,-0.0169808,VALID,19.762,VALID,31,VALID,1.56019,
2008-04-25, 02:32:00,VALID,916.714,VALID,0,VALID,100,VALID,0.0169808,VALID,19.7684,VALID,22,VALID,0.42702,
2008-04-25, 02:33:00,VALID,916.724,VALID,0,VALID,100,VALID,0,VALID,19.7652,VALID,16,VALID,0,
2008-04-25, 02:34:00,VALID,916.722,VALID,0,VALID,100,VALID,0.0169808,VALID,19.7615,VALID,16,VALID,0,
2008-04-25, 02:35:00,VALID,916.719,VALID,0,VALID,100,VALID,0.0169808,VALID,19.759,VALID,27,VALID,0.10103,
2008-04-25, 02:36:00,VALID,916.716,VALID,0,VALID,100,VALID,0,VALID,19.7517,VALID,322,VALID,0,
2008-04-25, 02:37:00,VALID,916.684,VALID,0,VALID,100,VALID,0.0339617,VALID,19.752,VALID,11,VALID,0,
2008-04-25, 02:38:00,VALID,916.677,VALID,0,VALID,100,VALID,0,VALID,19.7485,VALID,32,VALID,0.258765,
2008-04-25, 02:39:00,VALID,916.649,VALID,0,VALID,100,VALID,0,VALID,19.7455,VALID,55,VALID,0.471799,
2008-04-25, 02:40:00,VALID,916.63,VALID,0,VALID,100,VALID,0,VALID,19.7487,VALID,39,VALID,0.596608,
2008-04-25, 02:41:00,VALID,916.616,VALID,0,VALID,100,VALID,0.0509425,VALID,19.7415,VALID,38,VALID,1.39453,
2008-04-25, 02:42:00,VALID,916.603,VALID,0,VALID,100,VALID,0.0169808,VALID,19.7482,VALID,35,VALID,1.87969,
2008-04-25, 02:43:00,VALID,916.591,VALID,0,VALID,100,VALID,0,VALID,19.7647,VALID,29,VALID,0.693132,
2008-04-25, 02:44:00,VALID,916.555,VALID,0,VALID,100,VALID,0.0169808,VALID,19.7545,VALID,27,VALID,1.51435,
2008-04-25, 02:45:00,VALID,916.544,VALID,0,VALID,100,VALID,0.0169808,VALID,19.7547,VALID,33,VALID,1.40551,
2008-04-25, 02:46:00,VALID,916.567,VALID,0,VALID,100,VALID,0,VALID,19.7585,VALID,27,VALID,0.965701,
2008-04-25, 02:47:00,VALID,916.596,VALID,0,VALID,100,VALID,0,VALID,19.7647,VALID,27,VALID,1.09691,
2008-04-25, 02:48:00,VALID,916.585,VALID,0,VALID,100,VALID,0,VALID,19.7585,VALID,40,VALID,0.952553,
2008-04-25, 02:49:00,VALID,916.571,VALID,0,VALID,100,VALID,-0.0169808,VALID,19.7617,VALID,21,VALID,0.948047,
2008-04-25, 02:50:00,VALID,916.555,VALID,0,VALID,100,VALID,0,VALID,19.7455,VALID,32,VALID,1.53143,
2008-04-25, 02:51:00,VALID,916.533,VALID,0,VALID,100,VALID,0,VALID,19.749,VALID,30,VALID,1.5714,
2008-04-25, 02:52:00,VALID,916.502,VALID,0,VALID,100,VALID,-0.0339617,VALID,19.7362,VALID,36,VALID,1.68732,
2008-04-25, 02:53:00,VALID,916.504,VALID,0,VALID,100,VALID,-0.0679233,VALID,19.7402,VALID,34,VALID,1.21994,
2008-04-25, 02:54:00,VALID,916.444,VALID,0,VALID,100,VALID,-0.0679233,VALID,19.7332,VALID,21,VALID,1.45573,
2008-04-25, 02:55:00,VALID,916.428,VALID,0,VALID,100,VALID,-0.0679233,VALID,19.7305,VALID,14,VALID,1.39771,
2008-04-25, 02:56:00,VALID,916.432,VALID,0,VALID,100,VALID,-0.0509425,VALID,19.7273,VALID,10,VALID,0.507267,
2008-04-25, 02:57:00,VALID,916.427,VALID,0,VALID,100,VALID,-0.0679233,VALID,19.7205,VALID,19,VALID,0.697716,
2008-04-25, 02:58:00,VALID,916.448,VALID,0,VALID,100,VALID,-0.0509425,VALID,19.7043,VALID,360,VALID,0.356001,
2008-04-25, 02:59:00,VALID,916.441,VALID,0,VALID,100,VALID,-0.0679233,VALID,19.7048,VALID,348,VALID,0.0660342,
2008-04-25, 03:00:00,VALID,916.429,VALID,0,VALID,100,VALID,-0.0849042,VALID,19.6916,VALID,9,VALID,0.213844,
2008-04-25, 03:01:00,VALID,916.387,VALID,0,VALID,100,VALID,-0.0509425,VALID,19.6981,VALID,26,VALID,0.831321,
2008-04-25, 03:02:00,VALID,916.358,VALID,0,VALID,100,VALID,-0.0849042,VALID,19.6813,VALID,31,VALID,2.04066,
2008-04-25, 03:03:00,VALID,916.321,VALID,0,VALID,100,VALID,-0.101885,VALID,19.6883,VALID,28,VALID,1.98928,
2008-04-25, 03:04:00,VALID,916.311,VALID,0,VALID,100,VALID,-0.0679233,VALID,19.6781,VALID,31,VALID,1.94792,
2008-04-25, 03:05:00,VALID,916.328,VALID,0,VALID,100,VALID,-0.101885,VALID,19.6888,VALID,24,VALID,1.42934,
2008-04-25, 03:06:00,VALID,916.328,VALID,0,VALID,100,VALID,-0.101885,VALID,19.6751,VALID,9,VALID,0.808408,
2008-04-25, 03:07:00,VALID,916.314,VALID,0,VALID,100,VALID,-0.0339617,VALID,19.6876,VALID,33,VALID,1.62082,
2008-04-25, 03:08:00,VALID,916.31,VALID,0,VALID,100,VALID,-0.0169808,VALID,19.6938,VALID,35,VALID,1.15923,
2008-04-25, 03:09:00,VALID,916.299,VALID,0,VALID,100,VALID,0.0169808,VALID,19.6868,VALID,34,VALID,1.31486,
2008-04-25, 03:10:00,VALID,916.255,VALID,0,VALID,100,VALID,0,VALID,19.6943,VALID,34,VALID,1.87109,
2008-04-25, 03:11:00,VALID,916.227,VALID,0,VALID,100,VALID,0,VALID,19.6841,VALID,31,VALID,2.26799,
2008-04-25, 03:12:00,VALID,916.212,VALID,0,VALID,100,VALID,0,VALID,19.6806,VALID,5,VALID,1.67049,
2008-04-25, 03:13:00,VALID,916.221,VALID,0,VALID,100,VALID,-0.0169808,VALID,19.6941,VALID,27,VALID,2.01344,
2008-04-25, 03:14:00,VALID,916.227,VALID,0,VALID,100,VALID,0,VALID,19.6871,VALID,53,VALID,0.447129,
2008-04-25, 03:15:00,VALID,916.241,VALID,0,VALID,100,VALID,-0.0169808,VALID,19.6906,VALID,21,VALID,0.227582,
2008-04-25, 03:16:00,VALID,916.2,VALID,0,VALID,100,VALID,0,VALID,19.6941,VALID,37,VALID,1.5106,
2008-04-25, 03:17:00,VALID,916.198,VALID,0,VALID,100,VALID,0.0169808,VALID,19.6868,VALID,15,VALID,1.18821,
2008-04-25, 03:18:00,VALID,916.181,VALID,0,VALID,100,VALID,0.0169808,VALID,19.6868,VALID,20,VALID,0.794141,
2008-04-25, 03:19:00,VALID,916.179,VALID,0,VALID,100,VALID,-0.0169808,VALID,19.6906,VALID,26,VALID,1.73456,
2008-04-25, 03:20:00,VALID,916.16,VALID,0,VALID,100,VALID,0,VALID,19.6776,VALID,35,VALID,1.96057,
2008-04-25, 03:21:00,VALID,916.134,VALID,0,VALID,100,VALID,-0.0339617,VALID,19.6943,VALID,36,VALID,1.22911,
2008-04-25, 03:22:00,VALID,916.123,VALID,0,VALID,100,VALID,0.0509425,VALID,19.6963,VALID,29,VALID,1.19895,
2008-04-25, 03:23:00,VALID,916.118,VALID,0,VALID,100,VALID,0.118866,VALID,19.6863,VALID,29,VALID,0.689062,
2008-04-25, 03:24:00,VALID,916.12,VALID,0,VALID,100,VALID,0.101885,VALID,19.6823,VALID,31,VALID,0.65659,
2008-04-25, 03:25:00,VALID,916.109,VALID,0,VALID,100,VALID,0.0849042,VALID,19.6728,VALID,46,VALID,0.408537,
2008-04-25, 03:26:00,VALID,916.083,VALID,0,VALID,100,VALID,0.0849042,VALID,19.6793,VALID,19,VALID,0.853423,
2008-04-25, 03:27:00,VALID,916.094,VALID,0,VALID,100,VALID,0.101885,VALID,19.6726,VALID,23,VALID,0.234375,
2008-04-25, 03:28:00,VALID,916.092,VALID,0,VALID,100,VALID,0.0849042,VALID,19.6731,VALID,32,VALID,0.364955,
2008-04-25, 03:29:00,VALID,916.072,VALID,0,VALID,100,VALID,0.0679233,VALID,19.6728,VALID,36,VALID,0.848544,
2008-04-25, 03:30:00,VALID,916.056,VALID,0,VALID,100,VALID,0.101885,VALID,19.6793,VALID,37,VALID,1.41574,
2008-04-25, 03:31:00,VALID,916.078,VALID,0,VALID,100,VALID,0.0849042,VALID,19.6758,VALID,25,VALID,1.02464,
2008-04-25, 03:32:00,VALID,916.085,VALID,0,VALID,100,VALID,0.101885,VALID,19.6896,VALID,32,VALID,1.08164,
2008-04-25, 03:33:00,VALID,916.068,VALID,0,VALID,100,VALID,0.118866,VALID,19.6791,VALID,39,VALID,1.79483,
2008-04-25, 03:34:00,VALID,916.069,VALID,0,VALID,100,VALID,0.118866,VALID,19.6788,VALID,27,VALID,1.75,
2008-04-25, 03:35:00,VALID,916.081,VALID,0,VALID,100,VALID,0.101885,VALID,19.6988,VALID,35,VALID,1.22972,
2008-04-25, 03:36:00,VALID,916.035,VALID,0,VALID,100,VALID,0.101885,VALID,19.7055,VALID,33,VALID,1.35004,
2008-04-25, 03:37:00,VALID,916.053,VALID,0,VALID,100,VALID,0.0339617,VALID,19.6991,VALID,26,VALID,1.09844,
2008-04-25, 03:38:00,VALID,916.054,VALID,0,VALID,100,VALID,0.0339617,VALID,19.7065,VALID,29,VALID,1.59043,
2008-04-25, 03:39:00,VALID,916.047,VALID,0,VALID,100,VALID,0,VALID,19.6996,VALID,29,VALID,1.34593,
2008-04-25, 03:40:00,VALID,916.036,VALID,0,VALID,100,VALID,0.0169808,VALID,19.7033,VALID,27,VALID,0.841087,
2008-04-25, 03:41:00,VALID,916.036,VALID,0,VALID,100,VALID,0.0509425,VALID,19.6931,VALID,25,VALID,0.545387,
2008-04-25, 03:42:00,VALID,916.019,VALID,0,VALID,100,VALID,0.0339617,VALID,19.6998,VALID,28,VALID,1.26848,
2008-04-25, 03:43:00,VALID,916.018,VALID,0,VALID,100,VALID,0,VALID,19.7033,VALID,27,VALID,0.926599,
2008-04-25, 03:44:00,VALID,916.004,VALID,0,VALID,100,VALID,0,VALID,19.6966,VALID,17,VALID,1.48065,